Radiation Dose at Monitoring Post of Fukushima Daini Nuclear Power Station
Date,Time,MP-1(microSv/h),MP-2(microSv/h),MP-3(microSv/h),MP-4(microSv/h),MP-5(microSv/h),MP-6(microSv/h),MP-7(microSv/h),Wind Direction,Wind Velocity(m/s),Rain
2022/03/28,00:00,0.156,0.142,0.224,0.216,0.221,0.125,0.079,south,1.8,Yes
2022/03/28,00:10,0.154,0.142,0.223,0.217,0.222,0.123,0.079,south,1.8,No
2022/03/28,00:20,0.155,0.142,0.223,0.217,0.222,0.124,0.079,south,2.7,Yes
2022/03/28,00:30,0.156,0.143,0.224,0.217,0.222,0.123,0.080,south-southeast,2.7,Yes
2022/03/28,00:40,0.156,0.142,0.224,0.218,0.221,0.124,0.080,south-southwest,4.0,Yes
2022/03/28,00:50,0.156,0.143,0.224,0.217,0.221,0.126,0.081,south-southwest,3.5,Yes
2022/03/28,01:00,0.155,0.143,0.224,0.216,0.223,0.126,0.082,south-southwest,3.8,Yes
2022/03/28,01:10,0.157,0.143,0.225,0.218,0.222,0.126,0.082,south-southwest,3.8,Yes
2022/03/28,01:20,0.157,0.144,0.224,0.219,0.221,0.127,0.082,south-southeast,4.6,Yes
2022/03/28,01:30,0.157,0.144,0.224,0.217,0.222,0.125,0.082,south-southeast,5.2,Yes
2022/03/28,01:40,0.155,0.143,0.223,0.217,0.222,0.125,0.081,south-southeast,4.9,No
2022/03/28,01:50,0.155,0.143,0.223,0.218,0.220,0.125,0.080,south-southeast,6.1,No
2022/03/28,02:00,0.155,0.143,0.224,0.217,0.222,0.124,0.080,south-southeast,5.1,No
2022/03/28,02:10,0.154,0.142,0.223,0.217,0.221,0.124,0.080,south-southeast,5.0,No
2022/03/28,02:20,0.156,0.142,0.222,0.215,0.220,0.124,0.080,south-southeast,5.5,No
2022/03/28,02:30,0.155,0.142,0.222,0.217,0.220,0.123,0.079,south-southeast,5.1,No
2022/03/28,02:40,0.155,0.141,0.223,0.216,0.219,0.123,0.078,south-southeast,4.1,No
2022/03/28,02:50,0.155,0.142,0.223,0.215,0.221,0.123,0.079,south,4.4,No
2022/03/28,03:00,0.156,0.143,0.222,0.216,0.219,0.124,0.079,south,4.6,No
2022/03/28,03:10,0.155,0.141,0.223,0.216,0.221,0.123,0.079,south-southwest,4.0,No
2022/03/28,03:20,0.155,0.142,0.224,0.215,0.221,0.122,0.079,south-southwest,4.3,No
2022/03/28,03:30,0.155,0.141,0.222,0.215,0.220,0.124,0.079,south-southwest,4.3,No
2022/03/28,03:40,0.155,0.141,0.222,0.215,0.220,0.123,0.078,south-southwest,3.8,No
2022/03/28,03:50,0.155,0.141,0.222,0.216,0.221,0.123,0.078,south-southwest,3.5,No
2022/03/28,04:00,0.155,0.143,0.223,0.216,0.219,0.123,0.078,south-southwest,4.3,No
2022/03/28,04:10,0.154,0.142,0.223,0.216,0.220,0.122,0.078,south-southwest,4.1,No
2022/03/28,04:20,0.154,0.142,0.222,0.215,0.220,0.123,0.078,south,5.5,No
2022/03/28,04:30,0.154,0.141,0.222,0.215,0.219,0.123,0.077,south-southwest,4.7,No
2022/03/28,04:40,0.155,0.142,0.222,0.216,0.219,0.123,0.078,southwest,3.3,No
2022/03/28,04:50,0.153,0.142,0.222,0.215,0.220,0.123,0.078,southwest,2.2,No
2022/03/28,05:00,0.154,0.141,0.223,0.215,0.220,0.122,0.078,southwest,3.0,No
2022/03/28,05:10,0.154,0.142,0.223,0.215,0.220,0.123,0.078,southwest,1.3,No
2022/03/28,05:20,0.154,0.142,0.222,0.215,0.220,0.122,0.079,west,3.3,No
2022/03/28,05:30,0.155,0.142,0.222,0.215,0.219,0.122,0.078,west-southwest,3.7,No
2022/03/28,05:40,0.155,0.141,0.222,0.215,0.220,0.123,0.078,west-northwest,3.8,No
2022/03/28,05:50,0.154,0.141,0.222,0.215,0.218,0.123,0.078,west,7.0,No
2022/03/28,06:00,0.154,0.141,0.223,0.215,0.219,0.122,0.078,west,4.1,No
2022/03/28,06:10,0.155,0.141,0.223,0.216,0.220,0.123,0.078,west-northwest,5.7,No
2022/03/28,06:20,0.155,0.141,0.222,0.214,0.220,0.123,0.078,west-northwest,8.6,No
2022/03/28,06:30,0.155,0.141,0.221,0.215,0.220,0.122,0.077,west-northwest,11.4,No
2022/03/28,06:40,0.154,0.141,0.222,0.216,0.219,0.123,0.078,west-northwest,12.0,No
2022/03/28,06:50,0.153,0.141,0.222,0.215,0.219,0.123,0.078,west,9.5,No
2022/03/28,07:00,0.154,0.141,0.222,0.214,0.219,0.122,0.078,west,9.2,No
2022/03/28,07:10,0.155,0.141,0.222,0.215,0.220,0.122,0.078,west-northwest,9.9,No
2022/03/28,07:20,0.155,0.140,0.222,0.215,0.220,0.122,0.078,west-northwest,11.5,No
2022/03/28,07:30,0.154,0.141,0.222,0.215,0.221,0.122,0.078,northwest,11.3,No
2022/03/28,07:40,0.154,0.142,0.222,0.215,0.220,0.122,0.077,west-northwest,10.4,No
2022/03/28,07:50,0.155,0.141,0.223,0.214,0.219,0.123,0.078,west-northwest,12.7,No
2022/03/28,08:00,0.154,0.141,0.222,0.215,0.221,0.123,0.078,west,11.0,No
2022/03/28,08:10,0.155,0.141,0.222,0.215,0.220,0.123,0.078,west-northwest,8.0,No
2022/03/28,08:20,0.155,0.141,0.222,0.213,0.221,0.122,0.078,northwest,5.7,No
2022/03/28,08:30,0.154,0.141,0.221,0.215,0.221,0.122,0.078,west-northwest,6.0,No
2022/03/28,08:40,0.155,0.141,0.223,0.215,0.219,0.123,0.078,west,9.0,No
2022/03/28,08:50,0.153,0.142,0.221,0.215,0.222,0.122,0.079,west,6.2,No
2022/03/28,09:00,0.154,0.141,0.223,0.216,0.219,0.123,0.078,west,5.5,No
2022/03/28,09:10,0.154,0.141,0.223,0.214,0.220,0.123,0.078,west,6.2,No
2022/03/28,09:20,0.154,0.141,0.222,0.215,0.218,0.123,0.078,west-southwest,7.1,No
2022/03/28,09:30,0.154,0.140,0.222,0.215,0.221,0.123,0.078,west-southwest,5.7,No
2022/03/28,09:40,0.154,0.142,0.221,0.214,0.219,0.122,0.078,west,6.6,No
2022/03/28,09:50,0.153,0.141,0.222,0.215,0.221,0.122,0.078,west-northwest,7.4,No
2022/03/28,10:00,0.155,0.141,0.222,0.214,0.217,0.123,0.077,west-northwest,9.6,No
2022/03/28,10:10,0.153,0.141,0.223,0.214,0.221,0.123,0.079,west-northwest,8.4,No
2022/03/28,10:20,0.154,0.142,0.222,0.215,0.218,0.123,0.078,west-northwest,7.4,No
2022/03/28,10:30,0.153,0.141,0.223,0.215,0.221,0.123,0.079,west-northwest,6.8,No
2022/03/28,10:40,0.154,0.141,0.221,0.215,0.220,0.123,0.078,northwest,4.8,No
2022/03/28,10:50,0.154,0.140,0.223,0.214,0.220,0.123,0.078,north,4.0,No
2022/03/28,11:00,0.154,0.142,0.222,0.215,0.220,0.122,0.078,north,5.2,No
2022/03/28,11:10,0.154,0.141,0.222,0.215,0.219,0.124,0.078,north,6.2,No
2022/03/28,11:20,0.155,0.142,0.223,0.216,0.220,0.123,0.077,north-northwest,5.4,No
2022/03/28,11:30,0.154,0.141,0.224,0.217,0.220,0.122,0.078,northwest,3.5,No
2022/03/28,11:40,0.154,0.141,0.222,0.216,0.219,0.123,0.078,west-northwest,6.0,No
2022/03/28,11:50,0.154,0.143,0.223,0.216,0.221,0.123,0.078,west-northwest,5.1,Yes
2022/03/28,12:00,0.154,0.142,0.224,0.215,0.219,0.123,0.078,northwest,6.0,No
2022/03/28,12:10,0.155,0.142,0.223,0.217,0.221,0.122,0.078,northwest,5.7,No
2022/03/28,12:20,0.155,0.142,0.225,0.216,0.219,0.123,0.077,west-northwest,7.3,No
2022/03/28,12:30,0.154,0.141,0.224,0.217,0.222,0.123,0.078,west-northwest,6.9,No
2022/03/28,12:40,0.154,0.142,0.224,0.217,0.219,0.123,0.078,west-northwest,6.5,No
2022/03/28,12:50,0.153,0.141,0.224,0.217,0.221,0.122,0.078,west,7.6,No
2022/03/28,13:00,0.154,0.141,0.224,0.215,0.218,0.122,0.079,west-northwest,6.4,No
2022/03/28,13:10,0.155,0.140,0.223,0.216,0.218,0.123,0.078,west-northwest,6.8,No
2022/03/28,13:20,0.154,0.142,0.224,0.214,0.221,0.122,0.078,west-northwest,6.2,No
2022/03/28,13:30,0.154,0.140,0.222,0.217,0.219,0.123,0.078,west-northwest,5.5,No
2022/03/28,13:40,0.155,0.142,0.223,0.214,0.221,0.122,0.079,west-northwest,3.0,No
2022/03/28,13:50,0.153,0.141,0.222,0.217,0.220,0.124,0.078,northwest,3.8,No
2022/03/28,14:00,0.155,0.143,0.224,0.216,0.219,0.123,0.078,west-northwest,4.8,No
2022/03/28,14:10,0.153,0.142,0.223,0.216,0.222,0.123,0.077,west-northwest,4.0,No
2022/03/28,14:20,0.155,0.143,0.223,0.216,0.220,0.124,0.078,west-northwest,4.8,No
2022/03/28,14:30,0.154,0.141,0.223,0.217,0.221,0.123,0.078,west,7.2,No
2022/03/28,14:40,0.154,0.141,0.223,0.216,0.220,0.123,0.078,west,5.4,No
2022/03/28,14:50,0.155,0.142,0.224,0.215,0.220,0.123,0.078,northwest,7.3,No
2022/03/28,15:00,0.155,0.141,0.224,0.216,0.221,0.123,0.078,west,6.3,No
2022/03/28,15:10,0.155,0.142,0.223,0.216,0.220,0.123,0.078,west-northwest,7.1,No
2022/03/28,15:20,0.155,0.141,0.224,0.217,0.221,0.123,0.078,west,7.9,No
2022/03/28,15:30,0.155,0.141,0.224,0.216,0.220,0.122,0.078,west,8.1,No
2022/03/28,15:40,0.155,0.142,0.225,0.215,0.222,0.123,0.078,west,8.4,No
2022/03/28,15:50,0.155,0.142,0.223,0.218,0.220,0.122,0.078,west-northwest,6.8,No
2022/03/28,16:00,0.156,0.143,0.225,0.217,0.222,0.123,0.079,west-northwest,5.8,No
2022/03/28,16:10,0.155,0.143,0.225,0.217,0.221,0.124,0.079,west-northwest,5.7,No
2022/03/28,16:20,0.155,0.142,0.225,0.217,0.221,0.123,0.078,west-northwest,6.4,No
2022/03/28,16:30,0.155,0.142,0.225,0.217,0.221,0.123,0.078,west-northwest,7.1,No
2022/03/28,16:40,0.154,0.143,0.225,0.217,0.222,0.123,0.079,west-northwest,7.2,No
2022/03/28,16:50,0.156,0.143,0.225,0.217,0.221,0.124,0.078,west-northwest,7.5,No
2022/03/28,17:00,0.155,0.143,0.225,0.217,0.220,0.123,0.078,west-northwest,8.1,No
2022/03/28,17:10,0.155,0.142,0.224,0.218,0.222,0.124,0.079,west-northwest,7.1,No
2022/03/28,17:20,0.155,0.143,0.224,0.216,0.221,0.123,0.078,northwest,6.6,No
2022/03/28,17:30,0.154,0.143,0.226,0.218,0.222,0.124,0.078,northwest,4.8,No
2022/03/28,17:40,0.155,0.142,0.226,0.219,0.222,0.124,0.079,northwest,5.4,No
2022/03/28,17:50,0.155,0.143,0.224,0.217,0.222,0.124,0.079,northwest,4.9,No
2022/03/28,18:00,0.156,0.142,0.224,0.217,0.222,0.124,0.078,northwest,5.0,No
2022/03/28,18:10,0.155,0.142,0.225,0.218,0.221,0.123,0.078,northwest,5.5,No
2022/03/28,18:20,0.156,0.143,0.225,0.217,0.222,0.124,0.079,northwest,6.2,No
2022/03/28,18:30,0.155,0.143,0.224,0.218,0.222,0.123,0.078,northwest,3.8,No
2022/03/28,18:40,0.157,0.142,0.225,0.218,0.221,0.124,0.078,north-northwest,2.7,No
2022/03/28,18:50,0.155,0.143,0.225,0.217,0.221,0.123,0.078,north-northwest,3.4,No
2022/03/28,19:00,0.155,0.143,0.223,0.217,0.222,0.123,0.078,north,2.1,No
2022/03/28,19:10,0.156,0.142,0.225,0.217,0.221,0.124,0.079,north-northwest,2.1,No
2022/03/28,19:20,0.156,0.142,0.225,0.217,0.221,0.123,0.078,north-northwest,2.1,No
2022/03/28,19:30,0.156,0.143,0.225,0.217,0.222,0.124,0.079,north,1.9,No
2022/03/28,19:40,0.156,0.142,0.224,0.216,0.222,0.123,0.078,north-northwest,1.9,No
2022/03/28,19:50,0.156,0.142,0.224,0.217,0.221,0.124,0.078,north-northwest,1.9,No
2022/03/28,20:00,0.156,0.143,0.225,0.217,0.221,0.123,0.078,north-northwest,2.7,No
2022/03/28,20:10,0.156,0.142,0.224,0.216,0.220,0.123,0.079,north-northwest,2.9,No
2022/03/28,20:20,0.155,0.141,0.226,0.217,0.219,0.123,0.079,north-northwest,3.7,No
2022/03/28,20:30,0.155,0.143,0.224,0.217,0.221,0.123,0.079,north-northwest,3.5,No
2022/03/28,20:40,0.156,0.141,0.225,0.218,0.220,0.123,0.079,north-northwest,3.0,No
2022/03/28,20:50,0.156,0.142,0.225,0.217,0.221,0.122,0.078,north-northwest,3.0,No
2022/03/28,21:00,0.155,0.143,0.226,0.217,0.220,0.124,0.079,north-northwest,2.9,No
2022/03/28,21:10,0.158,0.141,0.225,0.218,0.222,0.124,0.078,north-northwest,3.6,No
2022/03/28,21:20,0.155,0.141,0.224,0.218,0.221,0.124,0.079,north-northwest,3.8,No
2022/03/28,21:30,0.156,0.141,0.224,0.218,0.220,0.123,0.078,north,4.0,No
2022/03/28,21:40,0.157,0.143,0.225,0.217,0.222,0.123,0.080,north-northwest,4.4,No
2022/03/28,21:50,0.155,0.142,0.225,0.218,0.221,0.124,0.078,north-northwest,4.9,No
2022/03/28,22:00,0.156,0.143,0.225,0.217,0.220,0.123,0.078,north-northwest,5.2,No
2022/03/28,22:10,0.154,0.142,0.225,0.218,0.222,0.123,0.079,north-northwest,3.8,No
2022/03/28,22:20,0.157,0.142,0.225,0.217,0.221,0.123,0.078,north-northwest,4.1,No
2022/03/28,22:30,0.156,0.144,0.225,0.217,0.221,0.123,0.079,north-northwest,5.0,No
2022/03/28,22:40,0.156,0.143,0.224,0.218,0.221,0.124,0.079,north-northwest,4.8,No
2022/03/28,22:50,0.156,0.143,0.224,0.217,0.222,0.123,0.079,north-northwest,5.8,No
2022/03/28,23:00,0.155,0.143,0.224,0.217,0.222,0.124,0.079,north-northwest,6.5,No
2022/03/28,23:10,0.156,0.142,0.226,0.216,0.221,0.124,0.078,north-northwest,6.2,No
2022/03/28,23:20,0.157,0.142,0.225,0.217,0.222,0.123,0.080,north-northwest,6.3,No
2022/03/28,23:30,0.157,0.143,0.224,0.217,0.222,0.123,0.078,northwest,5.1,No
2022/03/28,23:40,0.156,0.143,0.225,0.218,0.220,0.124,0.079,northwest,5.8,No
2022/03/28,23:50,0.155,0.142,0.224,0.217,0.221,0.124,0.078,north-northwest,7.2,No
